Location: Unspecified
(48.8656°N, 0.0000°E)
Time: 05:41:41
(UTC+00:00)

SR - Pass Details

Date: 30 June 2019
Orbit: 580 x 876 km, 66.7° (Epoch: 17 July)

Event Time Altitude Azimuth Distance (km) Brightness Sun altitude
Rises 03:19:35 0° 250° (WSW) 2,798 - -5.7°
Exits shadow 03:20:31 - 254° (WSW) 2,452 ? -5.6°
Reaches altitude 10° 03:22:04 10° 263° (W) 1,914 ? -5.5°
Maximum altitude 03:25:41 26° 321° (NW) 1,199 ? -5.0°
Drops below altitude 10° 03:29:27 10° 19° (NNE) 2,003 ? -4.6°
Sets 03:32:08 0° 32° (NNE) 2,959 ? -4.3°
